Regional Weather Roundup
Issued by NWS Upton, NY

Current Version | Previous Version | Text Only | Print | Product List | Glossary On
Versions: 1 2 3 4 5 6 7 8 9 10 11 12 13 14 15 16 17 18 19 20 21 22 23 24 25 26 27 28 29 30 31 32 33 34 35 36 37 38 39 40 41 42 43 44 45 46 47 48 49 50
000
ASUS41 KOKX 221017
RWROKX

REGIONAL WEATHER ROUNDUP
NATIONAL WEATHER SERVICE NEW YORK NY
500 AM EST WED NOV 22 2017

NOTE: "FAIR" INDICATES FEW OR NO CLOUDS BELOW 12,000 FEET WITH NO
SIGNIFICANT WEATHER AND/OR OBSTRUCTIONS TO VISIBILITY.

NYZ071-072-176-178-NJZ106-104-221100-
NEW YORK CITY METRO AREA

CITY           SKY/WX    TMP DP  RH WIND       PRES   REMARKS
Central Park   CLOUDY    55  47  74 CALM      29.95F
Bronx Bot Gard   N/A     48  41  76 NW1       29.93F
Bronx Lehman C   N/A     52  32  46 E2          N/A
LaGuardia APRT CLOUDY    53  45  74 S5        29.93F
Queens College   N/A     54  32  43 S2          N/A
Kennedy INTL   LGT RAIN  50  47  89 CALM      29.94F
Breezy Point     N/A     50 N/A N/A NE1         N/A
Brooklyn Coll    N/A     54  32  43 CALM        N/A
Staten Island    N/A     50  32  50 N2          N/A
Newark/Liberty LGT RAIN  50  42  74 CALM      29.93F
Teterboro      CLOUDY    46  39  76 CALM      29.92F
$$

NYZ177-179-078>081-221100-
LONG ISLAND NEW YORK

CITY           SKY/WX    TMP DP  RH WIND       PRES   REMARKS
Jones Beach      N/A     54 N/A N/A W6          N/A
Wantagh          N/A     54  32  43 SW5         N/A
Matinecock PT    N/A     54 N/A N/A SE3         N/A
Farmingdale    LGT RAIN  55  53  93 SW5       29.94F
MacArthur/ISP  RAIN      55  53  93 SW13      29.94F FOG
Shirley        LGT RAIN  54  53  97 SW7       29.96F FOG
Mt Sinai Harb    N/A    N/A N/A N/A S3          N/A
Westhampton    HVY RAIN  54  51  90 W9        29.96F FOG
East Hampton   CLOUDY    51  50  98 CALM      29.96F FOG
Southold         N/A     54  32  43 SW7         N/A
Montauk        NOT AVBL
$$

NYZ052-065-067-221100-
HUDSON VALLEY

CITY           SKY/WX    TMP DP  RH WIND       PRES   REMARKS
White Plains   CLOUDY    45  42  89 CALM      29.92F
Larchmont Harb   N/A     46 N/A N/A N2          N/A
Croton On Huds   N/A     46 N/A N/A MISG        N/A
Somers           N/A     45  32  61 NE2         N/A
Brewster         N/A     41  32  70 NW1         N/A
Newburgh       PTCLDY    37  34  87 CALM      29.94F
Montgomery     CLOUDY    32  29  88 CALM      29.91F
Suffern          N/A     45  32  61 N1          N/A
Poughkeepsie   CLOUDY    34  30  85 CALM      29.93F
Albany         CLOUDY    43  32  65 S6        29.91F
$$

NJZ001-105-106-008-010-013-015-019>022-104-221100-
NEW JERSEY

CITY           SKY/WX    TMP DP  RH WIND       PRES   REMARKS
Newark/Liberty LGT RAIN  50  42  74 CALM      29.93F
Teterboro      CLOUDY    46  39  76 CALM      29.92F
Caldwell       CLOUDY    39  36  89 CALM      29.94F
Somerville     CLOUDY    38  35  89 CALM      29.90F
Linden         CLOUDY    46  39  77 CALM      29.91F
Perth Amboy      N/A     48 N/A N/A N3          N/A
Sussex         CLOUDY    34  31  88 SW6       29.91F WCI  29
Andover          N/A     36  35  96 CALM      29.91F
Trenton        CLOUDY    47  43  86 CALM      29.91F
Millville      CLOUDY    54  54 100 CALM      29.90F
Atlantic City  LGT RAIN  55  55 100 S8        29.92F
Wrightstown    CLOUDY    53  51  95 CALM      29.87F
Toms River     LGT RAIN  52  50  93 CALM      29.91F FOG
Belmar         CLOUDY    55  53  93 E5        29.91F
$$

PAZ047>061-062-071-221100-
EASTERN PENNSYLVANIA

CITY           SKY/WX    TMP DP  RH WIND       PRES   REMARKS
Philadelphia   CLOUDY    52  47  83 S5        29.91F
Allentown      PTCLDY    36  32  85 CALM      29.91F
Scranton       CLOUDY    40  37  89 E5        29.88F
$$

CTZ002-004>006-009-010-012-RIZ004-006-007-MAZ004-011-015-221100-
SOUTHERN NEW ENGLAND
 IN CT

CITY           SKY/WX    TMP DP  RH WIND       PRES   REMARKS
Bradley INTL   CLOUDY    39  37  92 CALM      29.95F
Hartford       CLOUDY    45  41  86 CALM      29.95F
Danbury        CLOUDY    41  38  89 CALM      29.95F
Wtrbury/Oxford CLOUDY    47  42  83 CALM      29.95F
Norwalk Harbor   N/A     46 N/A N/A N2          N/A
Bridgeport     CLOUDY    50  46  86 CALM      29.95F
Meriden        CLOUDY    40  39  97 CALM      29.95F
New Haven      CLOUDY    52  48  86 CALM      29.95F
Chester        DRIZZLE   52  48  87 CALM      29.95F
Groton         RAIN      54  53  97 CALM      29.96F FOG
Wilimantic     LGT RAIN  44  40  85 NE3       29.97F

 IN RI

CITY           SKY/WX    TMP DP  RH WIND       PRES   REMARKS
Providence     LGT RAIN  51  51 100 S5        29.99F
Block Island   MOCLDY    58  54  86 S7        29.98F
Westerly       LGT RAIN  55  55 100 CALM      29.98F
 IN MA

CITY           SKY/WX    TMP DP  RH WIND       PRES   REMARKS
Boston         CLOUDY    49  46  90 S7        29.99F
Worcester      CLOUDY    45  38  76 S6        29.96F
Westfield      CLOUDY    38  37  97 CALM      29.95F
Provincetown   CLOUDY    55  52  89 S7        30.02F
Nantucket      CLOUDY    55  53  93 S14       30.02F
$$

ANZ330-335-338-340-345-350-353-355-221100-
COASTAL MARINE OBSERVATIONS


STATION/POSITION TIME  SKY/WX   TEMP    WIND        PRES    VSBY  WAVE
                                AIR SEA DIR/SP/G                  HT/PER
                 (UTC)          (F)     (DEG/KT/KT) (MB)    (MI)  (FT/S)
NY HARB ENTRANCE 0950            58 57  210/ 14/ 17 1012.8          4/ 7
20 S FIRE ISLAND 0950            60 57  180/ 17/ 21 1012.8          5/ 7
GREAT SOUTH BAY  0930            52 46  230/ 14/ 16   N/A
HUDSON CANYON    0950            62 59  150/ 16/ 19 1013.5          5/ 7
KINGS POINT      0948            52 51  160/  3/  4 1014.3
EXECUTION ROCKS  0945            51      20/  4/  6   N/A
WESTERN LI SOUND 0945            53     150/  4/  4   N/A           0
CENTRAL LI SOUND 0930            56     240/  6/  8   N/A           1
ROBBINS REEF     0948            53      CALM  /  1 1014.1
$$


>>>>>>>>>>>>>>>>>>>>>>>>>>>> KEY <<<<<<<<<<<<<<<<<<<<<<<<<<<
>                                                          <
>     SKY/WX - Sky Condition/Present Weather               <
>     TMP    - Temperature in Fahrenheit                   <
>     DP     - Dew Point in Fahrenheit                     <
>     RH     - Relative Humidity in Percent                <
>     WIND   - Direction (from) and Speed in MPH           <
>     PRES   - Mean Sea Level Pressure (inches of Hg)      <
>     WCI    - Wind Chill Index                            <
>     VSB    - VISIBILITY IN MILES                         <
>     HX     - HEAT INDEX                                  <
>     TC     - TEMPERATURE IN CELSIUS                      <
>     VRB    - VARIABLE WIND DIRECTION                     <
>                                                          <
>>>>>>>>>>>>>>>>>>>>>>>>>>>> KEY <<<<<<<<<<<<<<<<<<<<<<<<<<<



USA.gov is the U.S. government's official web portal to all federal, state and local government web resources and services.